| time (UTC) | temp F | wind direction | speed MPH | gust MPH | rain 1hr in | rain 24hr in | rain mn in | humidity % | barometer mb |
| 20260505022704 | 63 | 323 | 0.0 | 1.0 | 0.00 | 0.00 | 0.00 | 63 | 1009.7 |
| 20260505022200 | 62 | 294 | 1.0 | 2.0 | 0.00 | 0.00 | 0.00 | 64 | 1009.6 |
| 20260505021657 | 62 | 268 | 0.0 | 1.0 | 0.00 | 0.00 | 0.00 | 65 | 1009.8 |
| 20260505021154 | 62 | 300 | 0.0 | 1.0 | 0.00 | 0.00 | 0.00 | 64 | 1009.8 |
| 20260505020649 | 63 | 320 | 0.0 | 0.0 | 0.00 | 0.00 | 0.00 | 64 | 1009.8 |
| 20260505020145 | 63 | 300 | 0.0 | 1.0 | 0.00 | 0.00 | 0.00 | 64 | 1009.7 |
| 20260505015643 | 63 | 303 | 1.0 | 1.0 | 0.00 | 0.00 | 0.00 | 63 | 1009.7 |
| 20260505015139 | 63 | 304 | 0.0 | 0.0 | 0.00 | 0.00 | 0.00 | 63 | 1009.5 |
| 20260505014636 | 63 | 241 | 3.0 | 5.0 | 0.00 | 0.00 | 0.00 | 62 | 1009.7 |
| 20260505014133 | 63 | 258 | 1.0 | 2.0 | 0.00 | 0.00 | 0.00 | 62 | 1009.6 |
| 20260505013631 | 63 | 288 | 1.0 | 1.0 | 0.00 | 0.00 | 0.00 | 62 | 1009.4 |
| 20260505013128 | 64 | 290 | 1.0 | 1.0 | 0.00 | 0.00 | 0.00 | 61 | 1009.5 |
| 20260505012626 | 64 | 201 | 1.0 | 2.0 | 0.00 | 0.00 | 0.00 | 61 | 1009.6 |
| 20260505012122 | 64 | 314 | 0.0 | 1.0 | 0.00 | 0.00 | 0.00 | 60 | 1009.3 |
| 20260505011618 | 64 | 282 | 1.0 | 2.0 | 0.00 | 0.00 | 0.00 | 60 | 1009.5 |
| 20260505011115 | 64 | 303 | 0.0 | 1.0 | 0.00 | 0.00 | 0.00 | 60 | 1009.2 |
| 20260505010611 | 64 | 292 | 0.0 | 1.0 | 0.00 | 0.00 | 0.00 | 59 | 1009.4 |
| 20260505010108 | 64 | 8 | 1.0 | 2.0 | 0.00 | 0.00 | 0.00 | 58 | 1009.2 |
| 20260505005604 | 64 | 336 | 1.0 | 1.0 | 0.00 | 0.00 | 0.00 | 57 | 1009.1 |
| 20260505005101 | 64 | 233 | 1.0 | 2.0 | 0.00 | 0.00 | 0.00 | 57 | 1009.4 |
| 20260505004558 | 64 | 253 | 4.0 | 5.0 | 0.00 | 0.00 | 0.00 | 56 | 1009.0 |
| 20260505004055 | 64 | 278 | 1.0 | 1.0 | 0.00 | 0.00 | 0.00 | 56 | 1009.3 |
| 20260505003552 | 64 | 305 | 1.0 | 2.0 | 0.00 | 0.00 | 0.00 | 55 | 1009.3 |
| 20260505003049 | 65 | 299 | 1.0 | 1.0 | 0.00 | 0.00 | 0.00 | 55 | 1009.3 |
| 20260505002544 | 65 | 315 | 0.0 | 1.0 | 0.00 | 0.00 | 0.00 | 55 | 1009.2 |
| 20260505002043 | 65 | 281 | 3.0 | 3.0 | 0.00 | 0.00 | 0.00 | 54 | 1009.0 |
| 20260505001540 | 65 | 304 | 1.0 | 2.0 | 0.00 | 0.00 | 0.00 | 54 | 1009.2 |
| 20260505001037 | 65 | 318 | 2.0 | 3.0 | 0.00 | 0.00 | 0.00 | 54 | 1009.0 |
| 20260505000535 | 65 | 176 | 2.0 | 3.0 | 0.00 | 0.00 | 0.00 | 54 | 1009.0 |
| 20260505000032 | 66 | 260 | 3.0 | 5.0 | 0.00 | 0.00 | 0.00 | 54 | 1009.2 |
| 20260504235529 | 66 | 182 | 2.0 | 3.0 | 0.00 | 0.00 | 0.00 | 53 | 1009.1 |
| 20260504235025 | 66 | 283 | 1.0 | 1.0 | 0.00 | 0.00 | 0.00 | 53 | 1009.2 |
| 20260504234522 | 67 | 303 | 1.0 | 2.0 | 0.00 | 0.00 | 0.00 | 52 | 1009.3 |
| 20260504234019 | 67 | 222 | 4.0 | 7.0 | 0.00 | 0.00 | 0.00 | 50 | 1009.2 |
| 20260504233514 | 68 | 238 | 2.0 | 2.0 | 0.00 | 0.00 | 0.00 | 49 | 1009.2 |
| 20260504233012 | 68 | 240 | 4.0 | 6.0 | 0.00 | 0.00 | 0.00 | 47 | 1009.2 |
| 20260504232509 | 68 | 152 | 2.0 | 3.0 | 0.00 | 0.00 | 0.00 | 46 | 1009.1 |
| 20260504232007 | 69 | 288 | 1.0 | 2.0 | 0.00 | 0.00 | 0.00 | 46 | 1009.1 |
| 20260504231503 | 70 | 226 | 3.0 | 5.0 | 0.00 | 0.00 | 0.00 | 44 | 1009.0 |
| 20260504230959 | 70 | 300 | 0.0 | 1.0 | 0.00 | 0.00 | 0.00 | 42 | 1009.1 |
| 20260504230455 | 71 | 296 | 1.0 | 1.0 | 0.00 | 0.00 | 0.00 | 42 | 1009.1 |
| 20260504225954 | 71 | 300 | 1.0 | 1.0 | 0.00 | 0.00 | 0.00 | 42 | 1009.2 |
| 20260504225451 | 71 | 304 | 1.0 | 1.0 | 0.00 | 0.00 | 0.00 | 41 | 1009.2 |
| 20260504224948 | 70 | 267 | 4.0 | 9.0 | 0.00 | 0.00 | 0.00 | 41 | 1009.0 |
| 20260504224444 | 71 | 260 | 5.0 | 6.0 | 0.00 | 0.00 | 0.00 | 40 | 1008.9 |
| 20260504223941 | 71 | 291 | 3.0 | 5.0 | 0.00 | 0.00 | 0.00 | 40 | 1008.9 |
| 20260504223437 | 72 | 328 | 2.0 | 2.0 | 0.00 | 0.00 | 0.00 | 39 | 1008.9 |
| 20260504222933 | 72 | 282 | 4.0 | 8.0 | 0.00 | 0.00 | 0.00 | 38 | 1009.2 |
| 20260504222431 | 72 | 353 | 3.0 | 6.0 | 0.00 | 0.00 | 0.00 | 38 | 1009.3 |
| 20260504221929 | 73 | 249 | 4.0 | 6.0 | 0.00 | 0.00 | 0.00 | 37 | 1009.0 |
| 20260504221425 | 73 | 212 | 3.0 | 5.0 | 0.00 | 0.00 | 0.00 | 36 | 1009.1 |
| 20260504220922 | 73 | 276 | 3.0 | 5.0 | 0.00 | 0.00 | 0.00 | 36 | 1009.1 |
| 20260504220419 | 73 | 49 | 4.0 | 5.0 | 0.00 | 0.00 | 0.00 | 36 | 1009.2 |
| 20260504215916 | 73 | 306 | 3.0 | 3.0 | 0.00 | 0.00 | 0.00 | 35 | 1009.2 |
| 20260504215413 | 73 | 242 | 3.0 | 3.0 | 0.00 | 0.00 | 0.00 | 35 | 1009.1 |
| 20260504214909 | 74 | 238 | 4.0 | 6.0 | 0.00 | 0.00 | 0.00 | 33 | 1009.1 |
| 20260504214406 | 73 | 263 | 5.0 | 7.0 | 0.00 | 0.00 | 0.00 | 35 | 1008.9 |
| 20260504213903 | 74 | 311 | 3.0 | 5.0 | 0.00 | 0.00 | 0.00 | 33 | 1009.2 |
| 20260504213358 | 74 | 316 | 2.0 | 2.0 | 0.00 | 0.00 | 0.00 | 34 | 1009.2 |
| 20260504212856 | 74 | 212 | 2.0 | 2.0 | 0.00 | 0.00 | 0.00 | 33 | 1009.3 |
| 20260504212352 | 75 | 29 | 2.0 | 3.0 | 0.00 | 0.00 | 0.00 | 33 | 1009.2 |
| 20260504211850 | 74 | 298 | 2.0 | 2.0 | 0.00 | 0.00 | 0.00 | 34 | 1009.1 |
| 20260504211346 | 75 | 251 | 3.0 | 5.0 | 0.00 | 0.00 | 0.00 | 33 | 1009.2 |
| 20260504210843 | 75 | 291 | 2.0 | 3.0 | 0.00 | 0.00 | 0.00 | 34 | 1009.2 |
| 20260504210340 | 75 | 151 | 2.0 | 3.0 | 0.00 | 0.00 | 0.00 | 33 | 1009.2 |
| 20260504205837 | 74 | 296 | 1.0 | 1.0 | 0.00 | 0.00 | 0.00 | 34 | 1009.3 |
| 20260504205335 | 74 | 234 | 1.0 | 1.0 | 0.00 | 0.00 | 0.00 | 34 | 1009.3 |
| 20260504204833 | 75 | 265 | 2.0 | 2.0 | 0.00 | 0.00 | 0.00 | 33 | 1009.5 |
| 20260504204331 | 74 | 306 | 0.0 | 1.0 | 0.00 | 0.00 | 0.00 | 34 | 1009.5 |
| 20260504203830 | 75 | 312 | 2.0 | 3.0 | 0.00 | 0.00 | 0.00 | 33 | 1009.4 |
| 20260504203327 | 76 | 280 | 2.0 | 3.0 | 0.00 | 0.00 | 0.00 | 32 | 1009.2 |
| 20260504202822 | 75 | 237 | 2.0 | 3.0 | 0.00 | 0.00 | 0.00 | 33 | 1009.5 |
| 20260504202320 | 75 | 307 | 2.0 | 3.0 | 0.00 | 0.00 | 0.00 | 34 | 1009.5 |
| 20260504201816 | 73 | 336 | 2.0 | 2.0 | 0.00 | 0.00 | 0.00 | 35 | 1009.4 |
| 20260504201314 | 72 | 171 | 3.0 | 6.0 | 0.00 | 0.00 | 0.00 | 36 | 1009.6 |
| 20260504200811 | 73 | 240 | 3.0 | 5.0 | 0.00 | 0.00 | 0.00 | 34 | 1009.7 |
| 20260504200308 | 74 | 328 | 4.0 | 7.0 | 0.00 | 0.00 | 0.00 | 33 | 1009.9 |
| 20260504195803 | 73 | 224 | 3.0 | 5.0 | 0.00 | 0.00 | 0.00 | 33 | 1010.0 |
| 20260504195259 | 73 | 298 | 3.0 | 5.0 | 0.00 | 0.00 | 0.00 | 35 | 1010.1 |
| 20260504194757 | 73 | 343 | 3.0 | 3.0 | 0.00 | 0.00 | 0.00 | 33 | 1010.1 |
| 20260504194253 | 73 | 211 | 2.0 | 3.0 | 0.00 | 0.00 | 0.00 | 33 | 1010.2 |
| 20260504193749 | 72 | 331 | 1.0 | 1.0 | 0.00 | 0.00 | 0.00 | 35 | 1010.1 |
| 20260504193247 | 73 | 265 | 5.0 | 8.0 | 0.00 | 0.00 | 0.00 | 33 | 1010.5 |
| 20260504192745 | 73 | 292 | 3.0 | 6.0 | 0.00 | 0.00 | 0.00 | 34 | 1010.6 |
| 20260504192243 | 73 | 311 | 4.0 | 5.0 | 0.00 | 0.00 | 0.00 | 35 | 1010.5 |
| 20260504191741 | 73 | 351 | 1.0 | 1.0 | 0.00 | 0.00 | 0.00 | 33 | 1010.5 |
| 20260504191238 | 72 | 326 | 2.0 | 3.0 | 0.00 | 0.00 | 0.00 | 35 | 1010.8 |
| 20260504190733 | 71 | 176 | 4.0 | 5.0 | 0.00 | 0.00 | 0.00 | 34 | 1010.7 |
| 20260504190230 | 72 | 194 | 6.0 | 9.0 | 0.00 | 0.00 | 0.00 | 34 | 1010.7 |
| 20260504185726 | 73 | 311 | 3.0 | 5.0 | 0.00 | 0.00 | 0.00 | 35 | 1010.8 |
| 20260504185223 | 72 | 223 | 3.0 | 3.0 | 0.00 | 0.00 | 0.00 | 35 | 1010.9 |
| 20260504184719 | 71 | 235 | 2.0 | 2.0 | 0.00 | 0.00 | 0.00 | 34 | 1011.0 |
| 20260504184215 | 72 | 292 | 3.0 | 3.0 | 0.00 | 0.00 | 0.00 | 35 | 1011.0 |
| 20260504183711 | 72 | 295 | 4.0 | 5.0 | 0.00 | 0.00 | 0.00 | 34 | 1011.0 |
| 20260504183208 | 72 | 323 | 1.0 | 1.0 | 0.00 | 0.00 | 0.00 | 35 | 1011.1 |
| 20260504182707 | 71 | 317 | 3.0 | 3.0 | 0.00 | 0.00 | 0.00 | 36 | 1011.0 |
| 20260504182203 | 73 | 252 | 6.0 | 8.0 | 0.00 | 0.00 | 0.00 | 35 | 1011.1 |
| 20260504181701 | 73 | 296 | 1.0 | 2.0 | 0.00 | 0.00 | 0.00 | 39 | 1011.0 |
| 20260504181158 | 72 | 221 | 4.0 | 6.0 | 0.00 | 0.00 | 0.00 | 34 | 1011.1 |
| 20260504180657 | 71 | 264 | 1.0 | 2.0 | 0.00 | 0.00 | 0.00 | 35 | 1011.1 |
| 20260504180155 | 71 | 199 | 3.0 | 3.0 | 0.00 | 0.00 | 0.00 | 37 | 1011.4 |
| 20260504175652 | 71 | 319 | 1.0 | 1.0 | 0.00 | 0.00 | 0.00 | 36 | 1011.3 |
| 20260504175149 | 71 | 294 | 4.0 | 8.0 | 0.00 | 0.00 | 0.00 | 38 | 1011.4 |
| 20260504174647 | 72 | 338 | 1.0 | 1.0 | 0.00 | 0.00 | 0.00 | 37 | 1011.4 |
| 20260504174144 | 72 | 318 | 2.0 | 2.0 | 0.00 | 0.00 | 0.00 | 38 | 1011.6 |
| 20260504173641 | 71 | 320 | 1.0 | 1.0 | 0.00 | 0.00 | 0.00 | 38 | 1011.5 |
| 20260504173138 | 72 | 288 | 2.0 | 2.0 | 0.00 | 0.00 | 0.00 | 37 | 1011.8 |
| 20260504172635 | 71 | 290 | 3.0 | 5.0 | 0.00 | 0.00 | 0.00 | 41 | 1011.6 |
| 20260504172131 | 70 | 300 | 0.0 | 1.0 | 0.00 | 0.00 | 0.00 | 37 | 1011.8 |
| 20260504171628 | 70 | 261 | 4.0 | 6.0 | 0.00 | 0.00 | 0.00 | 37 | 1011.8 |
| 20260504171125 | 70 | 311 | 1.0 | 1.0 | 0.00 | 0.00 | 0.00 | 40 | 1011.8 |
| 20260504170621 | 71 | 326 | 1.0 | 3.0 | 0.00 | 0.00 | 0.00 | 40 | 1011.9 |
| 20260504170119 | 70 | 312 | 1.0 | 2.0 | 0.00 | 0.00 | 0.00 | 42 | 1012.2 |
| 20260504151004 | 64 | 282 | 3.0 | 5.0 | 0.00 | 0.00 | 0.00 | 44 | 1013.4 |
| 20260504150502 | 64 | 343 | 1.0 | 2.0 | 0.00 | 0.00 | 0.00 | 45 | 1013.5 |
| 20260504140927 | 62 | 302 | 1.0 | 2.0 | 0.00 | 0.00 | 0.00 | 48 | 1013.6 |
| 20260504140424 | 62 | 94 | 1.0 | 2.0 | 0.00 | 0.00 | 0.00 | 48 | 1013.7 |
| 20260504130349 | 56 | 307 | 2.0 | 2.0 | 0.00 | 0.00 | 0.00 | 58 | 1014.1 |
| 20260504120312 | 52 | 300 | 1.0 | 3.0 | 0.00 | 0.00 | 0.00 | 66 | 1014.3 |
| 20260504110236 | 47 | 297 | 0.0 | 0.0 | 0.00 | 0.00 | 0.00 | 74 | 1014.3 |
| 20260504100154 | 42 | 301 | 0.0 | 0.0 | 0.00 | 0.00 | 0.00 | 82 | 1014.4 |
| 20260504090116 | 39 | 301 | 0.0 | 0.0 | 0.00 | 0.00 | 0.00 | 87 | 1014.6 |
| 20260504081547 | 40 | 301 | 0.0 | 0.0 | 0.00 | 0.00 | 0.00 | 82 | 1014.9 |
| 20260504081042 | 41 | 301 | 0.0 | 0.0 | 0.00 | 0.00 | 0.00 | 83 | 1014.6 |
| 20260504080539 | 40 | 301 | 0.0 | 0.0 | 0.00 | 0.00 | 0.00 | 82 | 1014.6 |
| 20260504050352 | 41 | 301 | 0.0 | 0.0 | 0.00 | 0.00 | 0.00 | 82 | 1014.8 |
| 20260504045849 | 40 | 301 | 0.0 | 0.0 | 0.00 | 0.00 | 0.00 | 82 | 1015.0 |
| 20260504045344 | 40 | 301 | 0.0 | 0.0 | 0.00 | 0.00 | 0.00 | 83 | 1014.8 |
| 20260504044841 | 40 | 301 | 0.0 | 0.0 | 0.00 | 0.00 | 0.00 | 82 | 1014.9 |
| 20260504044338 | 40 | 301 | 0.0 | 0.0 | 0.00 | 0.00 | 0.00 | 81 | 1014.6 |
| 20260504043836 | 41 | 300 | 0.0 | 0.0 | 0.00 | 0.00 | 0.00 | 81 | 1014.6 |
| 20260504043332 | 41 | 301 | 0.0 | 0.0 | 0.00 | 0.00 | 0.00 | 80 | 1014.8 |
| 20260504042830 | 41 | 301 | 0.0 | 0.0 | 0.00 | 0.00 | 0.00 | 81 | 1014.6 |
| 20260504042326 | 41 | 301 | 0.0 | 0.0 | 0.00 | 0.00 | 0.00 | 82 | 1014.8 |
| 20260504041823 | 41 | 301 | 0.0 | 0.0 | 0.00 | 0.00 | 0.00 | 82 | 1014.6 |
| 20260504041319 | 41 | 301 | 0.0 | 0.0 | 0.00 | 0.00 | 0.00 | 82 | 1014.5 |
| 20260504040815 | 41 | 300 | 0.0 | 0.0 | 0.00 | 0.00 | 0.00 | 80 | 1014.7 |
| 20260504040313 | 41 | 301 | 0.0 | 0.0 | 0.00 | 0.00 | 0.00 | 80 | 1014.5 |
| 20260504035808 | 41 | 301 | 0.0 | 0.0 | 0.00 | 0.00 | 0.00 | 80 | 1014.7 |
| 20260504035306 | 41 | 301 | 0.0 | 0.0 | 0.00 | 0.00 | 0.00 | 79 | 1014.6 |
| 20260504034803 | 42 | 301 | 0.0 | 0.0 | 0.00 | 0.00 | 0.00 | 79 | 1014.4 |
| 20260504034301 | 42 | 301 | 0.0 | 0.0 | 0.00 | 0.00 | 0.00 | 79 | 1014.4 |
| 20260504033758 | 41 | 301 | 0.0 | 0.0 | 0.00 | 0.00 | 0.00 | 79 | 1014.4 |
| 20260504033255 | 41 | 301 | 0.0 | 0.0 | 0.00 | 0.00 | 0.00 | 79 | 1014.3 |
| 20260504032752 | 41 | 301 | 0.0 | 0.0 | 0.00 | 0.00 | 0.00 | 79 | 1014.4 |
| 20260504032249 | 41 | 300 | 0.0 | 0.0 | 0.00 | 0.00 | 0.00 | 79 | 1014.3 |
| 20260504031745 | 42 | 301 | 0.0 | 0.0 | 0.00 | 0.00 | 0.00 | 78 | 1014.3 |
| 20260504031243 | 42 | 301 | 0.0 | 0.0 | 0.00 | 0.00 | 0.00 | 77 | 1014.4 |
| 20260504030738 | 42 | 301 | 0.0 | 0.0 | 0.00 | 0.00 | 0.00 | 76 | 1014.1 |
| 20260504030236 | 42 | 301 | 0.0 | 0.0 | 0.00 | 0.00 | 0.00 | 76 | 1014.3 |
| 20260504025732 | 43 | 301 | 0.0 | 0.0 | 0.00 | 0.00 | 0.00 | 75 | 1014.3 |
| 20260504025229 | 43 | 301 | 0.0 | 0.0 | 0.00 | 0.00 | 0.00 | 74 | 1014.0 |
| 20260504024726 | 43 | 301 | 0.0 | 0.0 | 0.00 | 0.00 | 0.00 | 73 | 1014.3 |
| 20260504024222 | 44 | 301 | 0.0 | 0.0 | 0.00 | 0.00 | 0.00 | 72 | 1014.2 |
| 20260504023714 | 44 | 301 | 0.0 | 0.0 | 0.00 | 0.00 | 0.00 | 73 | 1014.2 |
| 20260504023210 | 43 | 300 | 0.0 | 0.0 | 0.00 | 0.00 | 0.00 | 74 | 1014.1 |